Location: Bílinka
(49.3579°N, 14.3767°E)
Time: 01:23:58
(UTC+00:00)

CZ-4B R/B - Pass Details

Date: 28 January 2023
Orbit: 808 x 881 km, 99.0° (Epoch: 30 March)

Event Time Altitude Azimuth Distance (km) Brightness Sun altitude
Rises 17:28:54 0° 152° (SSE) 3,323 6.1 -15.8°
Reaches altitude 10° 17:31:14 10° 150° (SSE) 2,401 5.4 -16.2°
Maximum altitude 17:36:28 64° 70° (ENE) 910 3.1 -17.0°
Drops below altitude 10° 17:41:50 10° 350° (N) 2,455 5.6 -17.9°
Sets 17:44:14 0° 347° (NNW) 3,404 6.4 -18.3°
